contact:dominique.lefevre@mio.osupytheas.fr, maurice.libes@osupytheas.fr, didier.mallarino@osupytheas.fr
Project:EMSO http://www.emso-fr.org/EMSO-France
Depth: 2436.0 m
Title:EMSO Ligure Ouest : Data MII capteur AQUADOPP
Date,Latitude,Longitude,X_East,Y_North,Z_Up,Amplitude_X,Amplitude_Y,Amplitude_Z,Batterie,SoundSpeed,Heading,Pitch,Roll,Pressure,TIS,Speed,Direction
, degrees North, degrees East, m.s-1, m.s-1,m.s-1, 1, 1, 1, Volt, m.s-1, degree, degree, degree, dbar, degree_C, m.s-1, degree
2021-03-18T00:04:03,42.805,6.029,0.043,-0.005,0.004,109.0,110.0,108.0,13.3,1505.2,327.3,-0.8,1.8,2469.671,13.28,0.043,96.6
2021-03-18T00:07:03,42.805,6.029,0.027,-0.009,0.032,110.0,109.0,105.0,13.4,1505.2,327.3,-0.7,1.9,2469.638,13.28,0.028,108.4
2021-03-18T00:10:03,42.805,6.029,0.044,-0.028,0.007,109.0,109.0,106.0,13.3,1505.2,327.6,-0.8,1.8,2469.709,13.28,0.052,122.5
2021-03-18T00:13:03,42.805,6.029,0.036,-0.024,0.017,110.0,109.0,106.0,13.3,1505.2,327.7,-0.7,1.9,2469.71,13.28,0.043,123.7
2021-03-18T00:16:03,42.805,6.029,0.029,-0.008,0.009,110.0,108.0,106.0,13.3,1505.2,327.3,-0.8,1.8,2469.707,13.28,0.03,105.4
2021-03-18T00:19:03,42.805,6.029,0.048,-0.008,0.028,109.0,109.0,106.0,13.3,1505.2,327.0,-0.7,1.8,2469.764,13.28,0.048,99.5
2021-03-18T00:22:03,42.805,6.029,0.034,-0.024,0.013,110.0,109.0,106.0,13.4,1505.2,327.5,-0.7,1.8,2469.793,13.28,0.041,125.2
2021-03-18T00:25:03,42.805,6.029,0.033,-0.007,0.022,110.0,110.0,105.0,13.4,1505.2,327.8,-0.7,1.8,2469.768,13.28,0.033,102.0
2021-03-18T00:28:03,42.805,6.029,0.033,-0.032,0.006,108.0,110.0,106.0,13.4,1505.2,327.6,-0.7,1.8,2469.798,13.28,0.045,134.1
2021-03-18T00:31:03,42.805,6.029,0.052,-0.023,0.0,109.0,108.0,107.0,13.3,1505.2,327.4,-0.7,1.8,2469.769,13.28,0.056,113.9
2021-03-18T00:34:03,42.805,6.029,0.034,-0.016,0.029,109.0,109.0,106.0,13.4,1505.2,327.5,-0.7,1.8,2469.819,13.28,0.037,115.2
2021-03-18T00:37:03,42.805,6.029,0.042,-0.02,0.038,110.0,109.0,106.0,13.4,1505.2,327.3,-0.8,1.8,2469.819,13.28,0.046,115.5
2021-03-18T00:40:03,42.805,6.029,0.04,-0.008,-0.009,110.0,109.0,106.0,13.4,1505.2,327.3,-0.8,1.8,2469.801,13.28,0.04,101.3
2021-03-18T00:43:03,42.805,6.029,0.044,-0.022,0.017,110.0,111.0,106.0,13.4,1505.2,327.6,-0.8,1.9,2469.813,13.28,0.049,116.6
2021-03-18T00:46:03,42.805,6.029,0.043,0.003,0.001,110.0,109.0,106.0,13.4,1505.2,327.4,-0.8,1.8,2469.887,13.28,0.043,86.0
2021-03-18T00:49:03,42.805,6.029,0.041,-0.021,0.017,108.0,109.0,106.0,13.4,1505.2,327.1,-0.7,1.8,2469.875,13.28,0.046,117.1
2021-03-18T00:52:03,42.805,6.029,0.028,-0.005,-0.005,111.0,111.0,106.0,13.4,1505.2,326.9,-0.8,1.9,2469.873,13.28,0.028,100.1
2021-03-18T00:55:03,42.805,6.029,0.034,-0.014,0.024,110.0,112.0,106.0,13.4,1505.2,327.1,-0.8,1.8,2469.881,13.28,0.036,112.4
2021-03-18T00:58:03,42.805,6.029,0.028,-0.008,-0.012,110.0,111.0,106.0,13.4,1505.2,327.2,-0.7,1.8,2469.856,13.28,0.029,105.9
2021-03-18T01:04:03,42.805,6.029,0.023,-0.007,0.017,110.0,111.0,106.0,13.4,1505.2,327.6,-0.7,1.8,2469.906,13.28,0.024,106.9
2021-03-18T01:07:03,42.805,6.029,0.04,-0.01,0.014,112.0,110.0,107.0,13.4,1505.2,327.0,-0.8,1.8,2469.892,13.28,0.041,104.0
2021-03-18T01:10:03,42.805,6.029,0.037,-0.009,0.017,109.0,109.0,107.0,13.3,1505.2,327.0,-0.8,1.8,2469.857,13.28,0.038,103.7
2021-03-18T01:13:03,42.805,6.029,0.045,-0.018,0.015,108.0,110.0,106.0,13.3,1505.2,327.4,-0.8,1.8,2469.899,13.28,0.048,111.8
2021-03-18T01:16:03,42.805,6.029,0.031,-0.027,0.023,109.0,109.0,107.0,13.3,1505.2,327.3,-0.8,1.8,2469.872,13.28,0.041,131.1
2021-03-18T01:19:03,42.805,6.029,0.037,-0.032,0.0,109.0,110.0,106.0,13.3,1505.2,327.7,-0.7,1.8,2469.875,13.28,0.048,130.9
2021-03-18T01:22:03,42.805,6.029,0.045,-0.002,-0.012,111.0,108.0,106.0,13.4,1505.2,327.8,-0.8,1.8,2469.825,13.28,0.045,92.5
2021-03-18T01:25:03,42.805,6.029,0.032,-0.021,0.039,111.0,110.0,107.0,13.4,1505.2,327.6,-0.8,1.8,2469.841,13.28,0.038,123.3
2021-03-18T01:28:03,42.805,6.029,0.034,-0.013,0.011,110.0,109.0,107.0,13.4,1505.2,327.3,-0.8,1.8,2469.867,13.28,0.036,110.9
2021-03-18T01:31:03,42.805,6.029,0.049,-0.026,-0.003,109.0,110.0,104.0,13.4,1505.2,327.5,-0.7,1.8,2469.873,13.28,0.055,117.9
2021-03-18T01:34:03,42.805,6.029,0.025,-0.028,-0.002,110.0,110.0,107.0,13.3,1505.2,327.2,-0.7,1.8,2469.876,13.28,0.037,138.2
2021-03-18T01:37:03,42.805,6.029,0.056,-0.02,0.005,109.0,110.0,107.0,13.4,1505.2,327.2,-0.8,1.9,2469.833,13.28,0.059,109.6
2021-03-18T01:40:03,42.805,6.029,0.015,-0.01,0.019,109.0,108.0,105.0,13.4,1505.2,326.8,-0.7,1.8,2469.834,13.28,0.018,123.7
2021-03-18T01:43:03,42.805,6.029,0.036,0.0,0.014,109.0,109.0,106.0,13.3,1505.2,327.2,-0.7,1.9,2469.87,13.28,0.036,90.0
2021-03-18T01:46:03,42.805,6.029,0.041,-0.023,0.023,110.0,110.0,106.0,13.3,1505.2,327.1,-0.8,1.8,2469.844,13.28,0.047,119.3
2021-03-18T01:49:03,42.805,6.029,0.025,-0.018,-0.002,109.0,110.0,105.0,13.4,1505.2,327.4,-0.8,1.8,2469.847,13.28,0.03,125.8
2021-03-18T01:52:03,42.805,6.029,0.039,-0.013,0.024,109.0,108.0,104.0,13.4,1505.2,327.4,-0.8,1.9,2469.819,13.28,0.041,108.4
2021-03-18T01:55:03,42.805,6.029,0.034,-0.026,0.004,110.0,110.0,106.0,13.4,1505.2,327.1,-0.8,1.8,2469.858,13.28,0.042,127.4
2021-03-18T01:58:03,42.805,6.029,0.022,-0.02,0.023,109.0,109.0,106.0,13.3,1505.2,327.5,-0.8,1.8,2469.819,13.28,0.029,132.3
2021-03-18T02:04:03,42.805,6.029,0.047,-0.022,0.027,109.0,110.0,107.0,13.4,1505.2,327.4,-0.8,1.8,2469.884,13.28,0.051,115.1
2021-03-18T02:07:03,42.805,6.029,0.038,-0.031,-0.004,109.0,109.0,105.0,13.4,1505.2,327.0,-0.8,1.8,2469.839,13.28,0.049,129.2
2021-03-18T02:10:03,42.805,6.029,0.024,-0.035,-0.004,109.0,109.0,106.0,13.4,1505.2,327.9,-0.7,1.8,2469.789,13.28,0.042,145.6
2021-03-18T02:13:03,42.805,6.029,0.034,-0.024,-0.001,111.0,110.0,106.0,13.4,1505.2,327.6,-0.7,1.8,2469.79,13.28,0.041,125.2
2021-03-18T02:16:03,42.805,6.029,0.016,-0.029,0.008,109.0,109.0,106.0,13.4,1505.2,327.2,-0.7,1.8,2469.778,13.28,0.033,151.1
2021-03-18T02:19:03,42.805,6.029,0.038,-0.016,0.008,108.0,110.0,106.0,13.4,1505.2,327.6,-0.8,1.9,2469.81,13.28,0.041,112.8
2021-03-18T02:22:03,42.805,6.029,0.016,-0.044,-0.012,109.0,108.0,106.0,13.3,1505.2,327.4,-0.8,1.8,2469.803,13.28,0.046,160.0
2021-03-18T02:25:03,42.805,6.029,0.03,-0.024,0.028,109.0,108.0,106.0,13.4,1505.2,327.7,-0.8,1.8,2469.814,13.28,0.038,128.7
2021-03-18T02:28:03,42.805,6.029,0.048,-0.001,0.033,109.0,109.0,106.0,13.3,1505.2,327.8,-0.8,1.9,2469.761,13.28,0.048,91.2
2021-03-18T02:31:03,42.805,6.029,0.048,-0.024,0.007,110.0,109.0,107.0,13.4,1505.2,327.1,-0.8,1.8,2469.776,13.28,0.053,116.6
2021-03-18T02:34:03,42.805,6.029,0.039,-0.009,0.001,110.0,111.0,107.0,13.4,1505.2,327.2,-0.7,1.8,2469.815,13.28,0.04,103.0
2021-03-18T02:37:03,42.805,6.029,0.034,-0.032,0.01,110.0,111.0,107.0,13.3,1505.2,327.7,-0.8,1.8,2469.776,13.28,0.046,133.3
2021-03-18T02:40:03,42.805,6.029,0.027,-0.019,0.008,110.0,109.0,106.0,13.4,1505.2,327.3,-0.7,1.8,2469.765,13.28,0.033,125.1
2021-03-18T02:43:03,42.805,6.029,0.017,-0.031,0.011,110.0,110.0,106.0,13.4,1505.2,327.8,-0.7,1.8,2469.796,13.28,0.035,151.3
2021-03-18T02:46:03,42.805,6.029,0.033,-0.01,0.019,109.0,108.0,106.0,13.4,1505.2,327.8,-0.7,1.8,2469.76,13.28,0.034,106.9
2021-03-18T02:49:03,42.805,6.029,0.019,-0.003,0.009,109.0,109.0,107.0,13.3,1505.2,327.7,-0.7,1.8,2469.803,13.28,0.019,99.0
2021-03-18T02:52:03,42.805,6.029,0.031,-0.011,0.014,110.0,109.0,106.0,13.4,1505.2,327.3,-0.8,1.8,2469.784,13.28,0.032,109.5
2021-03-18T02:55:03,42.805,6.029,0.048,-0.019,-0.008,109.0,108.0,106.0,13.4,1505.2,327.4,-0.7,1.8,2469.773,13.28,0.051,111.6
2021-03-18T02:58:03,42.805,6.029,0.039,-0.025,-0.005,110.0,108.0,105.0,13.4,1505.2,327.7,-0.8,1.8,2469.796,13.28,0.046,122.7
2021-03-18T03:04:03,42.805,6.029,0.042,-0.037,-0.016,110.0,109.0,108.0,13.4,1505.2,327.5,-0.7,1.8,2469.841,13.28,0.055,131.4
2021-03-18T03:07:03,42.805,6.029,0.014,-0.021,0.005,108.0,110.0,107.0,13.4,1505.2,327.6,-0.8,1.8,2469.774,13.28,0.025,146.3
2021-03-18T03:10:03,42.805,6.029,0.034,-0.012,0.019,110.0,108.0,106.0,13.4,1505.2,327.0,-0.8,1.8,2469.716,13.28,0.036,109.4
2021-03-18T03:13:03,42.805,6.029,0.038,-0.004,0.015,110.0,110.0,105.0,13.4,1505.2,327.5,-0.7,1.8,2469.799,13.28,0.038,96.0
2021-03-18T03:16:03,42.805,6.029,0.026,-0.004,-0.032,109.0,109.0,105.0,13.4,1505.2,327.4,-0.7,1.8,2469.748,13.28,0.026,98.7
2021-03-18T03:19:03,42.805,6.029,0.045,-0.022,0.01,110.0,109.0,105.0,13.4,1505.2,327.6,-0.7,1.8,2469.802,13.28,0.05,116.1
2021-03-18T03:22:03,42.805,6.029,0.038,-0.027,0.02,111.0,109.0,107.0,13.4,1505.2,327.8,-0.8,1.8,2469.711,13.28,0.046,125.4
2021-03-18T03:25:03,42.805,6.029,0.034,-0.014,0.024,111.0,108.0,106.0,13.4,1505.2,327.2,-0.7,1.8,2469.702,13.28,0.036,112.4
2021-03-18T03:28:03,42.805,6.029,0.026,-0.029,0.004,109.0,109.0,106.0,13.4,1505.2,327.5,-0.8,1.8,2469.722,13.28,0.038,138.1
2021-03-18T03:31:03,42.805,6.029,0.021,-0.015,0.021,109.0,109.0,105.0,13.4,1505.2,327.5,-0.7,1.9,2469.723,13.28,0.025,125.5
2021-03-18T03:34:03,42.805,6.029,0.044,-0.018,0.0,110.0,108.0,106.0,13.4,1505.2,327.7,-0.7,1.8,2469.745,13.28,0.047,112.2
2021-03-18T03:37:03,42.805,6.029,0.02,-0.021,0.037,109.0,109.0,107.0,13.4,1505.2,327.0,-0.7,1.8,2469.734,13.28,0.028,136.4
2021-03-18T03:40:03,42.805,6.029,0.03,-0.009,0.025,109.0,109.0,105.0,13.4,1505.2,327.2,-0.7,1.8,2469.718,13.28,0.031,106.7
2021-03-18T03:43:03,42.805,6.029,0.026,-0.043,-0.001,109.0,109.0,105.0,13.4,1505.2,327.7,-0.8,1.8,2469.712,13.28,0.05,148.8
2021-03-18T03:46:03,42.805,6.029,0.024,-0.013,0.004,110.0,110.0,107.0,13.4,1505.2,327.7,-0.8,1.9,2469.701,13.28,0.027,118.4
2021-03-18T03:49:03,42.805,6.029,0.017,-0.004,0.007,109.0,109.0,105.0,13.3,1505.2,327.4,-0.8,1.8,2469.715,13.28,0.017,103.2
2021-03-18T03:52:03,42.805,6.029,0.035,-0.008,-0.018,110.0,108.0,106.0,13.4,1505.2,327.2,-0.7,1.8,2469.712,13.28,0.035,102.9
2021-03-18T03:55:03,42.805,6.029,0.017,0.003,0.004,110.0,109.0,105.0,13.4,1505.2,327.1,-0.7,1.8,2469.698,13.28,0.017,80.0
2021-03-18T03:58:03,42.805,6.029,0.032,-0.003,0.019,109.0,110.0,105.0,13.3,1505.2,326.8,-0.8,1.8,2469.737,13.28,0.032,95.4
2021-03-18T04:04:03,42.805,6.029,0.03,-0.009,-0.007,110.0,109.0,106.0,13.4,1505.2,327.2,-0.8,1.8,2469.705,13.28,0.031,106.7
2021-03-18T04:07:03,42.805,6.029,0.021,-0.009,-0.001,110.0,109.0,105.0,13.4,1505.2,326.8,-0.8,1.8,2469.732,13.28,0.022,113.2
2021-03-18T04:10:03,42.805,6.029,0.031,-0.017,-0.021,111.0,110.0,106.0,13.3,1505.2,327.4,-0.7,1.8,2469.653,13.28,0.035,118.7
2021-03-18T04:13:03,42.805,6.029,0.014,-0.004,0.008,109.0,112.0,107.0,13.3,1505.2,327.2,-0.7,1.8,2469.56,13.28,0.014,105.9
2021-03-18T04:16:03,42.805,6.029,0.025,-0.008,-0.027,110.0,109.0,105.0,13.4,1505.2,327.5,-0.8,1.9,2469.511,13.28,0.026,107.7
2021-03-18T04:19:03,42.805,6.029,0.012,-0.001,-0.019,110.0,109.0,107.0,13.4,1505.2,327.6,-0.7,1.8,2469.48,13.28,0.012,94.8
2021-03-18T04:22:03,42.805,6.029,0.0,-0.003,-0.022,112.0,109.0,106.0,13.3,1505.2,327.3,-0.8,1.8,2469.445,13.28,0.003,180.0
2021-03-18T04:25:03,42.805,6.029,0.028,0.002,0.004,113.0,110.0,106.0,13.4,1505.2,327.2,-0.8,1.8,2469.406,13.28,0.028,85.9
2021-03-18T04:28:03,42.805,6.029,0.021,-0.027,0.015,111.0,114.0,106.0,13.4,1505.2,327.7,-0.7,1.8,2469.392,13.28,0.034,142.1
2021-03-18T04:31:03,42.805,6.029,0.027,-0.012,0.011,109.0,109.0,106.0,13.4,1505.2,327.8,-0.8,1.8,2469.342,13.28,0.029,114.0
2021-03-18T04:34:03,42.805,6.029,0.041,-0.012,-0.009,110.0,110.0,105.0,13.4,1505.2,327.0,-0.7,1.8,2469.264,13.28,0.042,106.3
2021-03-18T04:37:03,42.805,6.029,0.037,-0.02,0.043,109.0,109.0,107.0,13.3,1505.2,327.3,-0.7,1.8,2469.243,13.28,0.042,118.4
2021-03-18T04:40:03,42.805,6.029,0.025,0.007,-0.002,110.0,109.0,107.0,13.4,1505.2,327.1,-0.8,1.8,2469.225,13.28,0.025,74.4
2021-03-18T04:43:03,42.805,6.029,-0.003,-0.016,0.024,109.0,111.0,104.0,13.4,1505.2,327.7,-0.8,1.8,2469.183,13.28,0.016,190.6
2021-03-18T04:46:03,42.805,6.029,0.019,-0.008,0.017,110.0,110.0,104.0,13.3,1505.2,327.1,-0.8,1.8,2469.15,13.28,0.02,112.8
2021-03-18T04:49:03,42.805,6.029,0.006,-0.011,0.003,109.0,109.0,106.0,13.3,1505.2,327.2,-0.8,1.8,2469.083,13.28,0.012,151.4
2021-03-18T04:52:03,42.805,6.029,0.037,-0.001,0.0,110.0,108.0,108.0,13.4,1505.2,327.4,-0.7,1.8,2469.096,13.28,0.037,91.5
2021-03-18T04:55:03,42.805,6.029,0.009,0.0,0.009,109.0,109.0,105.0,13.4,1505.2,327.6,-0.7,1.8,2469.025,13.28,0.009,90.0
2021-03-18T04:58:03,42.805,6.029,0.003,-0.017,-0.011,109.0,109.0,107.0,13.4,1505.2,327.0,-0.8,1.8,2469.005,13.28,0.017,170.0
2021-03-18T05:04:03,42.805,6.029,0.012,-0.011,0.029,112.0,109.0,105.0,13.4,1505.2,327.3,-0.7,1.8,2468.987,13.28,0.016,132.5
2021-03-18T05:07:03,42.805,6.029,-0.008,0.007,-0.004,110.0,108.0,106.0,13.4,1505.2,327.2,-0.7,1.8,2468.937,13.28,0.01,311.2
2021-03-18T05:10:03,42.805,6.029,0.008,-0.01,-0.02,109.0,108.0,106.0,13.3,1505.2,326.8,-0.8,1.8,2468.975,13.28,0.012,141.3
2021-03-18T05:13:03,42.805,6.029,0.016,-0.024,0.009,110.0,111.0,106.0,13.4,1505.2,327.2,-0.8,1.8,2468.928,13.28,0.028,146.3
2021-03-18T05:16:03,42.805,6.029,-0.012,0.0,0.006,109.0,108.0,106.0,13.4,1505.2,327.2,-0.8,1.8,2468.843,13.28,0.012,270.0
2021-03-18T05:19:03,42.805,6.029,0.02,0.004,0.009,110.0,109.0,106.0,13.4,1505.2,327.7,-0.8,1.8,2468.898,13.28,0.02,78.7
2021-03-18T05:22:03,42.805,6.029,0.012,0.001,0.015,110.0,111.0,106.0,13.4,1505.2,327.5,-0.8,1.8,2468.885,13.28,0.012,85.2
2021-03-18T05:25:03,42.805,6.029,0.026,-0.004,0.009,109.0,109.0,106.0,13.3,1505.2,326.7,-0.8,1.8,2468.926,13.28,0.026,98.7
2021-03-18T05:28:03,42.805,6.029,0.012,0.002,0.008,109.0,110.0,106.0,13.4,1505.2,326.8,-0.7,1.8,2468.898,13.28,0.012,80.5
2021-03-18T05:31:03,42.805,6.029,0.001,-0.009,-0.005,109.0,110.0,106.0,13.4,1505.2,327.3,-0.8,1.8,2468.922,13.28,0.009,173.7
2021-03-18T05:34:03,42.805,6.029,0.021,-0.007,0.006,110.0,109.0,107.0,13.3,1505.2,327.7,-0.7,1.8,2468.891,13.28,0.022,108.4
2021-03-18T05:37:03,42.805,6.029,0.007,-0.004,0.006,110.0,110.0,107.0,13.4,1505.2,327.1,-0.7,1.8,2468.916,13.28,0.008,119.7
2021-03-18T05:40:03,42.805,6.029,0.021,-0.003,0.007,109.0,111.0,105.0,13.4,1505.2,327.3,-0.8,1.9,2468.895,13.28,0.021,98.1
2021-03-18T05:43:03,42.805,6.029,0.009,0.012,0.013,110.0,110.0,105.0,13.3,1505.2,327.6,-0.8,1.8,2468.844,13.28,0.015,36.9
2021-03-18T05:46:03,42.805,6.029,0.001,-0.015,-0.039,110.0,110.0,105.0,13.4,1505.2,327.1,-0.7,1.8,2468.831,13.28,0.015,176.2
2021-03-18T05:49:03,42.805,6.029,-0.003,-0.018,0.009,110.0,109.0,105.0,13.4,1505.2,327.0,-0.7,1.9,2468.831,13.28,0.018,189.5
2021-03-18T05:52:03,42.805,6.029,0.009,-0.001,0.041,110.0,109.0,107.0,13.4,1505.2,327.0,-0.8,1.9,2468.832,13.28,0.009,96.3
2021-03-18T05:55:03,42.805,6.029,0.02,-0.008,0.002,111.0,108.0,106.0,13.4,1505.2,327.6,-0.7,1.8,2468.796,13.28,0.021,111.8
2021-03-18T05:58:03,42.805,6.029,0.002,-0.03,0.005,110.0,109.0,106.0,13.3,1505.2,327.2,-0.8,1.8,2468.832,13.28,0.03,176.2
2021-03-18T06:04:03,42.805,6.029,-0.004,0.001,0.009,110.0,111.0,105.0,13.4,1505.2,327.0,-0.8,1.8,2468.838,13.28,0.004,284.0
2021-03-18T06:07:03,42.805,6.029,0.011,-0.022,-0.005,111.0,109.0,107.0,13.4,1505.2,327.2,-0.8,1.8,2468.839,13.28,0.024,153.4
2021-03-18T06:10:03,42.805,6.029,0.017,0.008,0.014,110.0,111.0,106.0,13.3,1505.2,327.6,-0.7,1.8,2468.803,13.28,0.018,64.8
2021-03-18T06:13:03,42.805,6.029,0.009,-0.017,0.008,110.0,110.0,106.0,13.4,1505.2,327.4,-0.8,1.8,2468.809,13.28,0.019,152.1
2021-03-18T06:16:03,42.805,6.029,-0.001,-0.001,0.028,108.0,109.0,106.0,13.4,1505.2,327.2,-0.7,1.8,2468.778,13.28,0.001,225.0
2021-03-18T06:19:03,42.805,6.029,0.016,-0.015,0.021,109.0,108.0,105.0,13.4,1505.2,327.3,-0.7,1.8,2468.801,13.28,0.021,133.1
2021-03-18T06:22:03,42.805,6.029,0.024,-0.01,0.0,110.0,110.0,106.0,13.4,1505.2,327.2,-0.8,1.8,2468.792,13.28,0.026,112.6
2021-03-18T06:25:03,42.805,6.029,0.02,-0.001,0.012,109.0,110.0,106.0,13.3,1505.2,327.1,-0.8,1.8,2468.803,13.28,0.02,92.9
2021-03-18T06:28:03,42.805,6.029,-0.013,0.002,0.024,110.0,109.0,108.0,13.4,1505.2,327.5,-0.8,1.9,2468.757,13.28,0.013,278.7
2021-03-18T06:31:03,42.805,6.029,-0.011,-0.003,0.009,110.0,112.0,106.0,13.4,1505.2,327.2,-0.7,1.8,2468.81,13.28,0.011,254.7
2021-03-18T06:34:03,42.805,6.029,0.004,0.008,-0.009,112.0,110.0,106.0,13.4,1505.2,327.3,-0.7,1.8,2468.812,13.29,0.008,26.6
2021-03-18T06:37:03,42.805,6.029,-0.006,0.005,0.015,110.0,110.0,106.0,13.4,1505.2,327.6,-0.8,1.8,2468.775,13.29,0.007,309.8
2021-03-18T06:40:03,42.805,6.029,-0.003,-0.011,-0.022,109.0,110.0,106.0,13.3,1505.2,327.4,-0.8,1.8,2468.807,13.29,0.011,195.3
2021-03-18T06:43:03,42.805,6.029,-0.002,0.005,0.012,109.0,111.0,107.0,13.4,1505.2,327.2,-0.8,1.8,2468.812,13.29,0.005,338.2
2021-03-18T06:46:03,42.805,6.029,0.0,-0.001,0.042,109.0,110.0,106.0,13.3,1505.2,327.1,-0.8,1.8,2468.792,13.29,0.001,180.0
2021-03-18T06:49:03,42.805,6.029,-0.005,0.01,0.005,109.0,111.0,107.0,13.4,1505.2,327.7,-0.8,1.8,2468.81,13.29,0.011,333.4
2021-03-18T06:52:03,42.805,6.029,0.005,0.016,0.017,111.0,110.0,105.0,13.3,1505.2,326.8,-0.8,1.8,2468.816,13.29,0.016,17.4
2021-03-18T06:55:03,42.805,6.029,0.011,-0.004,0.011,110.0,110.0,106.0,13.4,1505.2,327.2,-0.7,1.8,2468.791,13.29,0.011,110.0
2021-03-18T06:58:03,42.805,6.029,0.018,-0.004,0.019,110.0,110.0,106.0,13.3,1505.2,327.5,-0.7,1.8,2468.816,13.29,0.018,102.5
2021-03-18T07:04:03,42.805,6.029,0.009,0.001,-0.003,112.0,110.0,106.0,13.3,1505.2,327.5,-0.7,1.8,2468.817,13.28,0.009,83.7
2021-03-18T07:07:03,42.805,6.029,0.012,0.009,-0.014,111.0,111.0,107.0,13.4,1505.2,327.1,-0.8,1.8,2468.824,13.29,0.015,53.1
2021-03-18T07:10:03,42.805,6.029,-0.003,0.004,0.029,110.0,109.0,106.0,13.3,1505.2,327.5,-0.7,1.8,2468.808,13.29,0.005,323.1
2021-03-18T07:13:03,42.805,6.029,-0.004,0.015,0.018,111.0,111.0,108.0,13.4,1505.2,327.4,-0.8,1.8,2468.85,13.29,0.015,345.1
2021-03-18T07:16:03,42.805,6.029,0.002,-0.003,-0.008,110.0,110.0,106.0,13.4,1505.2,327.2,-0.8,1.8,2468.801,13.29,0.003,146.3
2021-03-18T07:19:03,42.805,6.029,0.017,-0.003,0.02,110.0,110.0,106.0,13.3,1505.2,327.7,-0.7,1.8,2468.827,13.29,0.017,100.0
2021-03-18T07:22:03,42.805,6.029,0.015,0.016,0.02,111.0,109.0,106.0,13.4,1505.2,327.9,-0.8,1.9,2468.837,13.29,0.021,43.1
2021-03-18T07:25:03,42.805,6.029,0.018,0.008,-0.01,110.0,110.0,106.0,13.3,1505.2,327.2,-0.8,1.8,2468.821,13.29,0.019,66.0
2021-03-18T07:28:03,42.805,6.029,0.009,0.017,0.004,111.0,110.0,107.0,13.3,1505.2,327.2,-0.7,1.8,2468.793,13.29,0.019,27.9
2021-03-18T07:31:03,42.805,6.029,0.002,0.018,-0.012,111.0,111.0,107.0,13.4,1505.2,327.4,-0.7,1.8,2468.798,13.29,0.018,6.3
2021-03-18T07:34:03,42.805,6.029,0.012,-0.005,0.006,111.0,112.0,107.0,13.4,1505.2,327.1,-0.8,1.8,2468.779,13.29,0.013,112.6
2021-03-18T07:37:03,42.805,6.029,0.007,0.022,0.036,111.0,111.0,105.0,13.4,1505.2,327.5,-0.8,1.9,2468.786,13.29,0.023,17.6
2021-03-18T07:40:03,42.805,6.029,0.022,0.018,0.005,112.0,110.0,106.0,13.3,1505.2,327.5,-0.8,1.8,2468.805,13.29,0.028,50.7
2021-03-18T07:43:03,42.805,6.029,0.027,0.001,0.0,110.0,111.0,105.0,13.4,1505.2,327.6,-0.8,1.8,2468.752,13.29,0.027,87.9
2021-03-18T07:46:03,42.805,6.029,0.015,-0.003,-0.007,109.0,111.0,107.0,13.4,1505.2,327.0,-0.8,1.8,2468.769,13.29,0.015,101.3
2021-03-18T07:49:03,42.805,6.029,0.006,0.01,-0.012,109.0,110.0,109.0,13.4,1505.2,327.5,-0.7,1.8,2468.743,13.29,0.011,31.0
2021-03-18T07:52:03,42.805,6.029,0.016,-0.01,0.007,110.0,109.0,107.0,13.3,1505.2,327.5,-0.7,1.8,2468.788,13.29,0.018,122.0
2021-03-18T07:55:03,42.805,6.029,0.011,0.0,0.008,110.0,111.0,107.0,13.4,1505.2,327.2,-0.8,1.8,2468.75,13.29,0.011,90.0
2021-03-18T07:58:03,42.805,6.029,0.018,0.0,-0.03,109.0,110.0,107.0,13.3,1505.2,326.8,-0.8,1.8,2468.807,13.29,0.018,90.0
2021-03-18T08:04:03,42.805,6.029,-0.004,-0.005,-0.01,110.0,110.0,106.0,13.4,1505.2,327.0,-0.8,1.8,2468.795,13.28,0.006,218.7
2021-03-18T08:07:03,42.805,6.029,-0.008,0.01,-0.002,112.0,112.0,105.0,13.3,1505.2,327.5,-0.8,1.8,2468.785,13.28,0.012,321.3
2021-03-18T08:10:03,42.805,6.029,0.004,-0.004,0.008,111.0,111.0,108.0,13.4,1505.2,327.4,-0.7,1.9,2468.802,13.29,0.005,135.0
2021-03-18T08:13:03,42.805,6.029,0.008,0.002,0.0,111.0,111.0,108.0,13.3,1505.2,327.6,-0.8,1.8,2468.749,13.29,0.008,76.0
2021-03-18T08:16:03,42.805,6.029,0.005,0.005,0.007,110.0,110.0,107.0,13.4,1505.2,327.3,-0.8,1.8,2468.77,13.29,0.007,45.0
2021-03-18T08:19:03,42.805,6.029,0.007,0.002,0.013,111.0,111.0,108.0,13.3,1505.2,327.3,-0.7,1.8,2468.765,13.29,0.007,74.1
2021-03-18T08:22:03,42.805,6.029,0.015,-0.004,0.02,110.0,109.0,107.0,13.4,1505.2,326.8,-0.8,1.8,2468.767,13.29,0.015,104.9
2021-03-18T08:25:03,42.805,6.029,0.006,0.011,0.016,109.0,111.0,107.0,13.4,1505.2,327.3,-0.7,1.8,2468.732,13.29,0.012,28.6
2021-03-18T08:28:03,42.805,6.029,-0.002,0.007,-0.002,110.0,111.0,106.0,13.3,1505.2,327.0,-0.8,1.8,2468.795,13.28,0.007,344.1
2021-03-18T08:31:03,42.805,6.029,0.017,-0.003,0.017,110.0,111.0,107.0,13.3,1505.2,327.1,-0.8,1.8,2468.785,13.29,0.017,100.0
2021-03-18T08:34:03,42.805,6.029,0.008,0.007,0.006,110.0,111.0,108.0,13.4,1505.2,327.6,-0.7,1.8,2468.784,13.29,0.01,48.8
2021-03-18T08:37:03,42.805,6.029,0.029,0.025,0.026,111.0,109.0,108.0,13.3,1505.2,327.1,-0.8,1.9,2468.794,13.29,0.038,49.2
2021-03-18T08:40:03,42.805,6.029,0.007,-0.002,0.0,112.0,110.0,108.0,13.4,1505.2,327.3,-0.8,1.8,2468.774,13.29,0.007,105.9
2021-03-18T08:43:03,42.805,6.029,0.012,0.0,0.008,111.0,111.0,107.0,13.4,1505.2,327.3,-0.7,1.8,2468.808,13.29,0.012,90.0
2021-03-18T08:46:03,42.805,6.029,0.018,0.019,-0.01,112.0,110.0,107.0,13.4,1505.2,327.1,-0.7,1.9,2468.782,13.29,0.026,43.5
2021-03-18T08:49:03,42.805,6.029,0.001,-0.001,0.0,111.0,111.0,107.0,13.4,1505.2,327.6,-0.8,1.9,2468.782,13.29,0.001,135.0
2021-03-18T08:52:03,42.805,6.029,0.011,-0.015,0.009,110.0,110.0,107.0,13.4,1505.2,327.7,-0.8,1.8,2468.798,13.29,0.018,143.7
2021-03-18T08:55:03,42.805,6.029,0.012,-0.004,-0.005,110.0,110.0,107.0,13.3,1505.2,327.2,-0.8,1.8,2468.791,13.28,0.012,108.4
2021-03-18T08:58:03,42.805,6.029,0.039,0.014,-0.006,111.0,111.0,106.0,13.4,1505.2,327.1,-0.7,1.8,2468.798,13.28,0.041,70.3
2021-03-18T09:04:03,42.805,6.029,0.019,0.012,-0.012,110.0,110.0,104.0,13.4,1505.2,327.2,-0.8,1.8,2468.839,13.28,0.022,57.7
2021-03-18T09:07:03,42.805,6.029,0.008,-0.005,0.003,111.0,111.0,107.0,13.3,1505.2,327.0,-0.7,1.8,2468.818,13.28,0.009,122.0
2021-03-18T09:10:03,42.805,6.029,0.005,-0.01,0.005,111.0,110.0,107.0,13.3,1505.2,327.3,-0.8,1.8,2468.801,13.28,0.011,153.4
2021-03-18T09:13:03,42.805,6.029,0.001,0.001,-0.019,111.0,113.0,108.0,13.4,1505.2,327.5,-0.8,1.8,2468.807,13.28,0.001,45.0
2021-03-18T09:16:03,42.805,6.029,0.009,0.001,0.021,111.0,110.0,107.0,13.3,1505.2,327.3,-0.8,1.8,2468.758,13.28,0.009,83.7
2021-03-18T09:19:03,42.805,6.029,0.006,0.001,0.018,110.0,109.0,106.0,13.4,1505.2,327.6,-0.7,1.8,2468.794,13.28,0.006,80.5
2021-03-18T09:22:03,42.805,6.029,0.032,0.007,0.002,110.0,110.0,106.0,13.3,1505.2,327.2,-0.7,1.9,2468.771,13.28,0.032,77.7
2021-03-18T09:25:03,42.805,6.029,0.022,0.002,0.007,109.0,110.0,107.0,13.3,1505.2,327.6,-0.8,1.8,2468.782,13.28,0.022,84.8
2021-03-18T09:28:03,42.805,6.029,-0.006,0.0,0.01,111.0,110.0,106.0,13.4,1505.2,327.1,-0.7,1.8,2468.738,13.28,0.006,270.0
2021-03-18T09:31:03,42.805,6.029,0.02,0.011,0.012,110.0,110.0,107.0,13.4,1505.2,327.7,-0.8,1.8,2468.788,13.28,0.022,61.2
2021-03-18T09:34:03,42.805,6.029,0.013,0.02,0.038,110.0,111.0,107.0,13.4,1505.2,327.3,-0.8,1.9,2468.74,13.28,0.023,33.0
2021-03-18T09:37:03,42.805,6.029,0.002,-0.004,-0.001,111.0,111.0,107.0,13.4,1505.2,327.5,-0.8,1.8,2468.73,13.28,0.004,153.4
2021-03-18T09:40:03,42.805,6.029,0.021,0.008,0.037,110.0,110.0,107.0,13.3,1505.2,327.0,-0.7,1.8,2468.736,13.28,0.022,69.1
2021-03-18T09:43:03,42.805,6.029,0.0,0.001,-0.014,110.0,110.0,106.0,13.3,1505.2,327.6,-0.8,1.8,2468.773,13.28,0.001,0.0
2021-03-18T09:46:03,42.805,6.029,0.02,-0.013,0.005,112.0,112.0,108.0,13.4,1505.2,327.1,-0.7,1.8,2468.73,13.28,0.023,123.0
2021-03-18T09:49:03,42.805,6.029,0.015,-0.005,-0.008,109.0,110.0,107.0,13.3,1505.2,327.5,-0.8,1.8,2468.762,13.28,0.015,108.4
2021-03-18T09:52:03,42.805,6.029,0.001,0.004,0.015,110.0,109.0,107.0,13.4,1505.2,327.6,-0.8,1.8,2468.752,13.28,0.004,14.0
2021-03-18T09:55:03,42.805,6.029,0.052,-0.01,-0.008,112.0,110.0,106.0,13.4,1505.2,327.3,-0.8,1.8,2468.786,13.28,0.052,100.9
2021-03-18T09:58:03,42.805,6.029,0.025,0.004,0.021,112.0,110.0,105.0,13.4,1505.2,327.5,-0.8,1.8,2468.756,13.28,0.025,80.9